FloripaSat 1
1 44885U 19093G   25178.77676006  .00003807  00000-0  32189-3 0  9997
2 44885  97.8156 266.4151 0011821 142.4785 217.7264 14.98622184299471
RS-44
1 44909U 19096E   25178.37893956  .00000016  00000-0  25265-4 0  9995
2 44909  82.5202 215.4529 0216297 253.8858 103.8335 12.79741469256962
UPMSat 2
1 46276U 20061E   25178.47041370  .00068863  00000-0  54950-3 0  9990
2 46276  97.2426 253.4829 0002309 153.3886 206.7496 15.70934614268277
SALSAT
1 46495U 20068K   25178.42286795  .00005500  00000-0  23709-3 0  9994
2 46495  97.8611 157.2785 0013155  99.7122 260.5600 15.22940644261243
CubeSX-Sirius-HSE
1 47951U 21022V   25157.62701764  .07883385  25648-5  89537-3 0  9993
2 47951  97.4004  72.1904 0010275 223.9924 136.0557 16.36879307233400
CubeSX-HSE
1 47952U 21022W   25157.69972699  .06655353  25454-5  93288-3 0  9992
2 47952  97.3980  72.5414 0010307 219.3637 140.6911 16.34906352233436
GRBAlpha
1 47959U 21022AD  25160.45426279  .07940347  25506-5  90589-3 0  9995
2 47959  97.3899  75.6235 0011032 227.2558 132.7812 16.36806138232695
TUBIN
1 48900U 21059X   25178.79788556  .00030144  00000-0  34718-3 0  9994
2 48900  97.6754 349.5251 0004194 158.0375 202.1063 15.61927405222883
LEDSAT
1 49069U 21073D   25178.18163983  .00063455  00000-0  69906-3 0  9999
2 49069  97.3883 260.4826 0007234  16.3159 343.8331 15.62897782214183
CUTE
1 49263U 21088D   25178.46667519  .00020819  00000-0  40537-3 0  9992
2 49263  97.4520 255.2479 0008748 166.2569 193.8921 15.47550798207192
TeikyoSat 4
1 49396U 21102B   25178.53718414  .00001231  00000-0  84472-4 0  9999
2 49396  97.4089 216.3171 0014113  74.5589 285.7197 15.07703312199253
Z-Sat
1 49399U 21102E   25178.85436875  .00003367  00000-0  18539-3 0  9997
2 49399  97.3783 219.8320 0019114  45.2769 315.0016 15.14540067199746
KOSEN 1
1 49402U 21102H   25178.83547526  .00004680  00000-0  21659-3 0  9992
2 49402  97.3688 223.3674 0016128  21.6521 338.5393 15.20496972200061
HO-113
1 50466U 21131B   25178.81654484  .00000309  00000-0  11028-3 0  9999
2 50466  98.5108 268.0804 0005421  85.7355 274.4453 14.40832039184070
Foresail-1
1 52766U 22057AL  25176.64799660  .13857605  27391-5  25307-3 0  9992
2 52766  97.5832 331.2310 0012137 233.7199 258.4922 16.46795272172486
SNUGLITE 2
1 52899U 22065F   25178.88502166  .00000670  00000-0  13914-3 0  9991
2 52899  98.1712 320.6823 0008689  61.8250 298.3829 14.63248232159168
UmKA 1 (RS40S)
1 57172U 23091G   25178.83083346  .00004271  00000-0  22860-3 0  9990
2 57172  97.5567 234.1188 0012690 270.8619  89.1159 15.15517992110247
CubeBel-2 (EU11S)
1 57175U 23091K   25178.87807729  .00005872  00000-0  27870-3 0  9990
2 57175  97.5565 235.4246 0010354 278.3000  81.7060 15.19603279110336
VERONIKA
1 58261U 23174F   25178.77892181  .00146630  00000-0  94974-3 0  9991
2 58261  97.4102 266.1174 0003317 270.3096  89.7789 15.75604662 91544
ENSO
1 58470U 23185J   25178.82797897  .00042576  00000-0  57596-3 0  9992
2 58470  97.3727 254.5551 0005452  25.3042 334.8480 15.57598421 87877
EIRSAT-1
1 58472U 23185L   25178.88132982  .00096810  00000-0  76466-3 0  9995
2 58472  97.3668 256.8538 0001928  18.8223 341.3111 15.71088595 88030
SONATE-2
1 59112U 24043Q   25178.34450186  .00012563  00000-0  35695-3 0  9993
2 59112  97.5162 309.8861 0011708  56.6206 303.6157 15.36250842 73064
MO-122
1 60209U 24125G   25178.09441346  .00015413  00000-0  42999-3 0  9995
2 60209  97.2769  29.5208 0020132  76.8441 283.5048 15.36628656 54640
GRBBeta
1 60237U 24128C   25178.56920231  .00002978  00000-0  23067-3 0  9993
2 60237  61.9920  16.8286 0053298  61.5620 299.0827 15.02766799 52900
Curium One
1 60242U 24128H   25178.84122703  .00005091  00000-0  35746-3 0  9994
2 60242  61.9822  13.9009 0053234  57.8534 302.7707 15.05341806 52988
ROBUSTA-3A
1 60243U 24128J   25178.84959198  .00004883  00000-0  34829-3 0  9990
2 60243  61.9892  14.7613 0052130  55.5840 305.0164 15.04869517 52970
CatSat
1 60246U 24125J   25178.54009013  .00007996  00000-0  26468-3 0  9997
2 60246  97.2569  28.9702 0042975  32.4947 327.8926 15.30674111 52735
HYPERVIEW-1G (RS66S)
1 61772U 24199AP  25178.78902666  .00014854  00000-0  42297-3 0  9994
2 61772  97.3506  47.6144 0015164 124.1410 236.1274 15.36089612 79755
AO-123
1 61781U 24199AY  25178.77990475  .00005068  00000-0  18432-3 0  9999
2 61781  97.3521  46.2950 0017209 129.5647 230.7116 15.28559203 79669
ZIMSAT 2
1 61783U 24199BA  25178.84208543  .00026549  00000-0  62614-3 0  9995
2 61783  97.3479  48.4244 0015082 121.3050 238.9676 15.41755308 82965
HADES-R (SO-124)
1 62690U 25009CK  25178.20654815  .00030605  00000-0  10480-2 0  9992
2 62690  97.4092 258.9555 0002807  64.4388 295.7142 15.30163848 24842
HYDRA-T
1 62692U 25009CM  25178.18893812  .00029039  00000-0  98631-3 0  9997
2 62692  97.4093 258.9781 0002437  62.5323 297.6165 15.30440645 24842
JINJUSat 1B
1 63210U 25052A   25178.42621941  .00008627  00000-0  39241-3 0  9993
2 63210  97.4402  72.3259 0002299 250.0530 110.0458 15.20964317 15963
NUSHSAT 1
1 63211U 25052B   25178.22093908  .00008825  00000-0  39835-3 0  9997
2 63211  97.4389  72.1283 0002226 262.2889  97.8094 15.21221821 15937
TEVEL2-4
1 63213U 25052D   25178.69860451  .00008596  00000-0  39149-3 0  9998
2 63213  97.4303  72.4490 0001448 298.9958  61.1133 15.20920294 16002
TEVEL2-5
1 63214U 25052E   25178.43625544  .00009523  00000-0  43366-3 0  9990
2 63214  97.4307  72.1886 0001502 301.3068  58.8020 15.20895428 15967
TEVEL2-6
1 63215U 25052F   25178.43886496  .00009470  00000-0  43177-3 0  9997
2 63215  97.4308  72.1866 0001562 302.4046  57.7038 15.20854866 15969
TEVEL2-1
1 63217U 25052H   25178.45250448  .00009051  00000-0  41549-3 0  9999
2 63217  97.4281  72.1352 0002091 325.6633  34.4467 15.20632059 15964
TEVEL2-2
1 63218U 25052J   25178.18958078  .00008985  00000-0  41252-3 0  9990
2 63218  97.4286  71.8768 0002139 326.7180  33.3920 15.20628798 15922
TEVEL2-3
1 63219U 25052K   25178.45298406  .00008957  00000-0  41130-3 0  9997
2 63219  97.4276  72.1350 0002097 326.3232  33.7870 15.20626960 15961
TEVEL2-8
1 63237U 25052AD  25177.67648034  .00007784  00000-0  37061-3 0  9991
2 63237  97.4350  71.2728 0006843 327.6195  32.4619 15.19400587 15834
TEVEL2-9
1 63238U 25052AE  25178.14052769  .00008392  00000-0  39993-3 0  9991
2 63238  97.4348  71.7249 0006892 325.4576  34.6210 15.19345867 15906
TEVEL2-7
1 63239U 25052AF  25178.14287535  .00008289  00000-0  39544-3 0  9990
2 63239  97.4348  71.7205 0006904 325.8678  34.2112 15.19312076 15903
HYDRA-W
1 63490U 25052BL  25178.21214120  .00020457  00000-0  84526-3 0  9998
2 63490  97.4297  72.1689 0009828 318.5840  41.4651 15.23985488 15944
HADES-ICM (SO-125)
1 63492U 25052BN  25178.23225792  .00019237  00000-0  80616-3 0  9999
2 63492  97.4299  72.1496 0010220 322.7678  37.2849 15.23517540 15940
